time_stamp(utc),avg(mph),gust(mph),direction(deg),12m_air_temp(f),sonic_u(cm/s),sonic_v(cm/s),sonic_w(cm/s),pressure,2m_air_temp(f),pyranometer(W/m^2)
"2021-08-05 00:02:39+00",17.6,19.6,,69.1,531,557,11,1017.88,69.1,0
"2021-08-05 00:07:39+00",17.1,22.1,,69,576,520,21,1017.85,69,0
"2021-08-05 00:12:39+00",13.5,16.5,,69,401,424,24,1017.95,68.9,0
"2021-08-05 00:17:39+00",16.9,18.9,,69,509,530,5,1017.89,68.8,0
"2021-08-05 00:22:39+00",12.2,14.2,,69.1,331,401,-34,1017.97,68.9,0
"2021-08-05 00:27:39+00",16.4,19.4,,69.2,432,579,-50,1017.97,68.9,0
"2021-08-05 00:32:39+00",17.3,20.3,,69.3,447,617,-50,1018.07,69,0
"2021-08-05 00:37:39+00",17.7,19.7,,69.3,521,582,-55,1018.09,69,0
"2021-08-05 00:42:39+00",13.7,15.7,,69.3,303,496,-58,1018.13,69,0
"2021-08-05 00:47:39+00",14.2,18.2,,69.2,394,475,-36,1018.18,68.9,0
"2021-08-05 00:52:39+00",14.2,17.2,,69.1,325,523,-45,1018.08,68.9,0
"2021-08-05 00:57:39+00",15.9,17.9,,69.1,479,526,-30,1018.16,68.8,0
"2021-08-05 01:02:39+00",14.5,18.5,,69.1,355,510,-29,1018.19,68.8,0
"2021-08-05 01:07:39+00",14.0,15.0,,69.1,387,471,-27,1018.28,68.8,0
"2021-08-05 01:12:39+00",15.6,18.6,,69,437,526,-24,1018.36,68.8,0
"2021-08-05 01:17:39+00",14.5,17.5,,69,401,500,-29,1018.38,68.7,0
"2021-08-05 01:22:39+00",15.5,19.5,,68.9,455,499,-24,1018.45,68.7,0
"2021-08-05 01:27:39+00",15.1,18.1,,68.9,384,527,-52,1018.48,68.7,0
"2021-08-05 01:32:39+00",16.1,18.1,,68.8,442,536,-31,1018.47,68.6,0
"2021-08-05 01:37:39+00",12.9,14.9,,68.6,316,451,-29,1018.46,68.6,0
"2021-08-05 01:42:39+00",16.0,18.0,,68.8,429,532,-54,1018.43,68.6,0
"2021-08-05 01:47:39+00",14.3,16.3,,68.9,381,495,-39,1018.55,68.6,0
"2021-08-05 01:52:39+00",12.6,14.6,,68.9,389,384,-40,1018.54,68.7,0
"2021-08-05 01:57:39+00",13.9,15.9,,69,372,464,-42,1018.57,68.7,0
"2021-08-05 02:02:39+00",13.1,15.1,,69.1,446,372,-21,1018.69,68.8,0
"2021-08-05 02:07:39+00",14.6,17.6,,69,351,522,-58,1018.7,68.8,0
"2021-08-05 02:12:39+00",14.8,16.8,,69.3,423,480,-43,1018.63,68.8,0
"2021-08-05 02:17:39+00",13.3,15.3,,69.3,382,424,-34,1018.55,68.8,0
"2021-08-05 02:22:39+00",14.6,16.6,,69.3,411,473,-36,1018.54,68.8,0
"2021-08-05 02:27:39+00",15.4,18.4,,69.3,435,518,-15,1018.46,68.9,0
"2021-08-05 02:32:39+00",14.8,17.8,,69.3,443,482,-19,1018.47,68.9,0
"2021-08-05 02:37:39+00",16.8,19.8,,69.3,557,519,-29,1018.39,68.9,0
"2021-08-05 02:42:39+00",15.8,18.8,,69.3,538,498,-39,1018.34,68.9,0
"2021-08-05 02:47:39+00",16.5,18.5,,69.3,498,540,-37,1018.29,69,0
"2021-08-05 02:52:39+00",13.0,15.0,,69.3,443,378,-5,1018.18,69,0
"2021-08-05 02:57:39+00",13.3,16.3,,69.3,426,408,-38,1018.05,69,0
"2021-08-05 03:02:39+00",10.3,11.3,,69,387,250,-5,1018.03,69.1,0
"2021-08-05 03:07:39+00",15.7,17.7,,68.9,533,470,-28,1017.94,68.9,0
"2021-08-05 03:12:39+00",13.7,16.7,,68.8,336,483,-33,1017.88,68.8,0
"2021-08-05 03:17:39+00",15.8,17.8,,68.9,430,530,-45,1017.86,68.7,0
"2021-08-05 03:22:39+00",16.1,18.1,,68.8,453,528,-51,1017.83,68.7,0
"2021-08-05 03:27:39+00",13.8,15.8,,68.8,361,458,-28,1017.97,68.7,0
"2021-08-05 03:32:39+00",14.2,17.2,,68.8,270,569,-53,1017.95,68.5,0
"2021-08-05 03:37:39+00",15.5,18.5,,68.8,332,584,-41,1017.99,68.4,0
"2021-08-05 03:42:39+00",15.9,17.9,,68.8,434,541,-48,1018.01,68.4,0
"2021-08-05 03:47:39+00",12.5,14.5,,68.8,280,460,-58,1018.07,68.4,0
"2021-08-05 03:52:39+00",13.8,15.8,,68.8,397,455,-39,1018.15,68.4,0
"2021-08-05 03:57:39+00",12.7,13.7,,68.8,368,403,-32,1018.3,68.4,0
"2021-08-05 04:02:39+00",14.7,17.7,,68.8,402,494,-34,1018.38,68.4,0
"2021-08-05 04:07:39+00",10.0,11.0,,68.8,270,316,-38,1018.42,68.5,0
"2021-08-05 04:12:39+00",15.5,18.5,,68.8,410,516,-36,1018.4,68.4,0
"2021-08-05 04:17:39+00",13.3,15.3,,68.8,357,461,-21,1018.41,68.4,0
"2021-08-05 04:22:39+00",16.6,18.6,,68.8,413,575,-61,1018.39,68.4,0
"2021-08-05 04:27:39+00",15.6,17.6,,68.8,422,538,-50,1018.35,68.4,0
"2021-08-05 04:32:39+00",12.5,13.5,,68.8,352,400,-43,1018.33,68.5,0
"2021-08-05 04:37:39+00",13.4,15.4,,68.8,380,443,-51,1018.42,68.5,0
"2021-08-05 04:42:39+00",13.5,15.5,,68.8,402,431,-37,1018.51,68.5,0
"2021-08-05 04:47:39+00",10.6,12.6,,68.8,357,300,-14,1018.56,68.5,0
"2021-08-05 04:52:39+00",11.7,13.7,,68.7,402,315,-21,1018.53,68.5,0
"2021-08-05 04:57:39+00",13.5,14.5,,68.8,429,406,-36,1018.55,68.4,0
"2021-08-05 05:02:39+00",11.6,13.6,,68.8,401,303,-26,1018.52,68.5,0
"2021-08-05 05:07:39+00",12.4,14.4,,68.8,457,343,-28,1018.39,68.5,0
"2021-08-05 05:12:39+00",12.2,14.2,,68.8,409,371,-49,1018.34,68.5,0
"2021-08-05 05:17:39+00",12.7,14.7,,68.8,452,351,-25,1018.26,68.4,0
"2021-08-05 05:22:39+00",12.2,14.2,,68.8,442,317,-36,1018.29,68.5,0
"2021-08-05 05:27:39+00",12.3,15.3,,68.7,428,324,-24,1018.2,68.4,0
"2021-08-05 05:32:39+00",14.0,15.0,,68.6,510,359,-22,1018.11,68.4,0
"2021-08-05 05:37:39+00",11.1,13.1,,68.6,403,298,-44,1018.12,68.5,0
"2021-08-05 05:42:39+00",9.7,10.7,,68.5,339,249,-24,1018.22,68.4,0
"2021-08-05 05:47:39+00",8.0,11.0,,68.4,45,321,-17,1018.23,68.3,0
"2021-08-05 05:52:39+00",11.8,13.8,,68.2,267,405,-24,1018.17,68.2,0
"2021-08-05 05:57:39+00",14.2,17.2,,67.5,293,557,-50,1018.15,67.9,0
"2021-08-05 06:02:39+00",9.8,11.8,,67.1,-7,435,-30,1018.01,67.5,0
"2021-08-05 06:07:39+00",9.2,11.2,,66.7,-8,401,-32,1017.87,67.1,0
"2021-08-05 06:12:39+00",9.5,11.5,,66.4,-82,372,-48,1017.84,66.7,0
"2021-08-05 06:17:39+00",9.2,10.2,,66.2,-83,356,-48,1017.8,66.5,0
"2021-08-05 06:22:39+00",8.3,9.3,,66.2,-83,330,-36,1017.76,66.3,0
"2021-08-05 06:27:39+00",8.3,9.3,,66.1,-24,324,-54,1017.88,66.1,0
"2021-08-05 06:32:39+00",8.7,10.7,,66.1,2,345,-43,1017.87,66,0
"2021-08-05 06:37:39+00",8.5,10.5,,66.1,-22,339,-55,1017.84,66,0
"2021-08-05 06:42:39+00",11.0,12.0,,66.1,-60,447,-51,1017.63,65.9,0
"2021-08-05 06:47:39+00",10.4,12.4,,66.1,-19,433,-44,1017.62,65.8,0
"2021-08-05 06:52:39+00",8.8,10.8,,66.2,-22,340,-42,1017.57,65.7,0
"2021-08-05 06:57:39+00",10.5,12.5,,66.2,43,445,-54,1017.54,65.7,0
"2021-08-05 07:02:39+00",10.3,13.3,,66.3,21,416,-49,1017.5,65.7,0
"2021-08-05 07:07:39+00",11.4,13.4,,66.4,15,463,-68,1017.45,65.8,0
"2021-08-05 07:12:39+00",9.8,11.8,,66.4,41,393,-49,1017.39,65.8,0
"2021-08-05 07:17:39+00",11.6,12.6,,66.3,35,491,-59,1017.41,65.8,0
"2021-08-05 07:22:39+00",11.1,14.1,,66.3,111,438,-66,1017.47,65.8,0
"2021-08-05 07:27:39+00",10.3,11.3,,66.4,59,421,-60,1017.38,65.9,0
"2021-08-05 07:32:39+00",11.3,13.3,,66.5,116,448,-53,1017.36,65.9,0
"2021-08-05 07:37:39+00",12.7,14.7,,66.5,26,542,-69,1017.25,65.9,0
"2021-08-05 07:42:39+00",12.2,14.2,,66.5,48,525,-53,1017.1,65.8,0
"2021-08-05 07:47:39+00",11.3,13.3,,66.4,-2,483,-54,1017.1,65.8,0
"2021-08-05 07:52:39+00",10.3,12.3,,66.4,22,431,-57,1017.11,65.8,0
"2021-08-05 07:57:39+00",11.9,14.9,,66.4,19,537,-23,1017.06,65.8,0
"2021-08-05 08:02:39+00",8.6,9.6,,66.5,46,347,-35,1017.13,65.9,0
"2021-08-05 08:07:39+00",10.6,13.6,,66.5,34,436,-40,1017.23,65.9,0
"2021-08-05 08:12:39+00",13.2,15.2,,66.5,55,576,-36,1017.21,65.9,0
"2021-08-05 08:17:39+00",12.2,13.2,,66.6,37,527,-54,1017.26,65.9,0
"2021-08-05 08:22:39+00",10.6,11.6,,66.5,59,433,-51,1017.16,65.9,0
"2021-08-05 08:27:39+00",12.0,14.0,,66.6,10,500,-69,1017.11,66,0
"2021-08-05 08:32:39+00",11.7,13.7,,66.8,-12,493,-54,1017.12,66,0
"2021-08-05 08:37:39+00",12.1,14.1,,66.7,-8,511,-66,1017,66,0
"2021-08-05 08:42:39+00",13.1,15.1,,66.7,0,571,-59,1017,66,0
"2021-08-05 08:47:39+00",9.3,11.3,,66.6,18,378,-53,1017.15,66.1,0
"2021-08-05 08:52:39+00",11.6,13.6,,66.7,57,470,-54,1017.08,66.1,0
"2021-08-05 08:57:39+00",12.3,14.3,,66.6,-12,523,-59,1016.96,66.1,0
"2021-08-05 09:02:39+00",11.1,12.1,,66.6,-13,468,-54,1017.12,66.1,0
"2021-08-05 09:07:39+00",11.6,13.6,,66.6,75,473,-61,1017.15,66.1,0
"2021-08-05 09:12:39+00",9.2,11.2,,66.7,26,367,-50,1017.18,66.2,0
"2021-08-05 09:17:39+00",10.3,11.3,,66.6,-59,436,-53,1017.18,66.1,0
"2021-08-05 09:22:39+00",10.5,12.5,,66.6,-114,437,-59,1017.14,66.1,0
"2021-08-05 09:27:39+00",9.5,11.5,,66.5,-102,385,-44,1017.14,66,0
"2021-08-05 09:32:39+00",10.5,11.5,,66.4,-193,421,-51,1017.13,65.9,0
"2021-08-05 09:37:39+00",9.1,10.1,,66.2,-149,368,13,1017.08,65.8,0
"2021-08-05 09:42:39+00",10.2,12.2,,66,-172,409,10,1017.12,65.6,0
"2021-08-05 09:47:39+00",10.9,12.9,,65.9,-145,464,6,1017.05,65.5,0
"2021-08-05 09:52:39+00",10.0,12.0,,65.7,-144,427,4,1017.04,65.4,0
"2021-08-05 09:57:39+00",10.1,12.1,,65.6,-182,410,11,1017.02,65.3,0
"2021-08-05 10:02:39+00",11.4,13.4,,65.5,-133,492,6,1017.03,65.2,0
"2021-08-05 10:07:39+00",10.2,12.2,,65.6,-156,430,12,1017.06,65.2,0
"2021-08-05 10:12:39+00",9.2,11.2,,65.6,-114,391,16,1017.12,65.2,0
"2021-08-05 10:17:39+00",10.2,11.2,,65.6,-142,432,3,1017.14,65.2,0
"2021-08-05 10:22:39+00",11.5,12.5,,65.7,-175,477,9,1017.19,65.2,0
"2021-08-05 10:27:39+00",10.8,11.8,,65.7,-144,469,3,1017.21,65.2,0
"2021-08-05 10:32:39+00",8.9,9.9,,65.7,-92,383,4,1017.14,65.2,0
"2021-08-05 10:37:39+00",8.9,10.9,,65.7,-87,393,8,1017.12,65.3,0
"2021-08-05 10:42:39+00",10.3,11.3,,65.8,-108,443,3,1017.22,65.4,0
"2021-08-05 10:47:39+00",11.2,13.2,,65.9,-155,478,5,1017.26,65.4,0
"2021-08-05 10:52:39+00",8.6,9.6,,66,-130,355,18,1017.36,65.5,0
"2021-08-05 10:57:39+00",11.1,12.1,,66,-166,464,2,1017.36,65.5,0
"2021-08-05 11:02:39+00",8.5,10.5,,65.9,-161,340,22,1017.44,65.5,0
"2021-08-05 11:07:39+00",10.6,12.6,,66,-199,426,14,1017.52,65.6,0
"2021-08-05 11:12:39+00",10.3,11.3,,66.1,-182,414,12,1017.54,65.8,0
"2021-08-05 11:17:39+00",9.4,11.4,,66.3,-149,382,11,1017.51,66,0
"2021-08-05 11:22:39+00",10.5,11.5,,66.5,-207,419,24,1017.52,66.3,0
"2021-08-05 11:27:39+00",12.4,14.4,,66.5,-255,477,10,1017.54,66.4,0
"2021-08-05 11:32:39+00",12.2,14.2,,66.2,-300,445,13,1017.64,66.2,0
"2021-08-05 11:37:39+00",10.7,11.7,,66,-279,373,17,1017.67,66.1,0
"2021-08-05 11:42:39+00",11.5,12.5,,65.6,-269,422,13,1017.59,65.8,0
"2021-08-05 11:47:39+00",12.2,13.2,,65.5,-238,476,8,1017.62,65.5,0
"2021-08-05 11:52:39+00",9.6,11.6,,65.4,-224,362,21,1017.72,65.4,0
"2021-08-05 11:57:39+00",8.6,10.6,,65.3,-184,325,6,1017.74,65.3,0
"2021-08-05 12:02:39+00",8.4,10.4,,65.3,-173,320,26,1017.84,65.4,0
"2021-08-05 12:07:39+00",8.6,10.6,,65.3,-180,335,13,1017.91,65.3,0
"2021-08-05 12:12:39+00",9.9,10.9,,65.4,-250,355,24,1018.01,65.7,0
"2021-08-05 12:17:39+00",9.8,10.8,,65.7,-247,352,22,1018.04,66.1,0
"2021-08-05 12:22:39+00",9.6,10.6,,65.9,-197,366,8,1018.04,66.6,0
"2021-08-05 12:27:39+00",11.2,12.2,,66.1,-242,431,0,1018.03,67.2,0
"2021-08-05 12:32:39+00",10.0,12.0,,66.6,-236,373,18,1018.02,67.8,0
"2021-08-05 12:37:39+00",9.2,11.2,,67.3,-81,388,15,1018.19,68.6,0
"2021-08-05 12:42:39+00",8.0,10.0,,68,-105,337,35,1018.1,69.5,0
"2021-08-05 12:47:39+00",10.1,12.1,,68,-125,420,5,1018.08,70.1,0
"2021-08-05 12:52:39+00",8.9,10.9,,68.6,-90,414,49,1018.12,70.7,0
"2021-08-05 12:57:39+00",9.4,11.4,,68.6,-50,410,33,1018.04,71.1,0
"2021-08-05 13:02:39+00",10.7,12.7,,68.8,-147,456,17,1018.07,71.4,0
"2021-08-05 13:07:39+00",12.2,15.2,,69.1,-69,538,21,1018.18,71.9,0
"2021-08-05 13:12:39+00",8.8,10.8,,69.2,12,373,9,1018.21,72.1,0
"2021-08-05 13:17:39+00",10.4,12.4,,69.7,138,424,0,1018.1,72.5,0
"2021-08-05 13:22:39+00",9.9,12.9,,69.8,-29,423,24,1018.17,72.9,0
"2021-08-05 13:27:39+00",12.8,14.8,,70.2,-13,562,11,1018.24,73.3,0
"2021-08-05 13:32:39+00",8.9,10.9,,70.6,88,372,15,1018.33,73.9,0
"2021-08-05 13:37:39+00",9.4,12.4,,70.9,125,383,-1,1018.38,74.1,0
"2021-08-05 13:42:39+00",9.6,11.6,,70.9,52,407,3,1018.33,74.1,0
"2021-08-05 13:47:39+00",10.4,12.4,,71.5,-36,442,1,1018.28,74.8,0
"2021-08-05 13:52:39+00",8.7,10.7,,71.5,-12,361,4,1018.4,75,0
"2021-08-05 13:57:39+00",11.4,12.4,,71.9,274,397,-6,1018.38,75.8,0
"2021-08-05 14:02:39+00",8.4,10.4,,71.6,223,276,10,1018.48,76.4,0
"2021-08-05 14:07:39+00",8.6,10.6,,72.1,177,324,22,1018.5,76.2,0
"2021-08-05 14:12:39+00",9.6,11.6,,72.3,266,320,18,1018.51,76.3,0
"2021-08-05 14:17:39+00",9.2,11.2,,72.3,165,339,11,1018.45,76.8,0
"2021-08-05 14:22:39+00",10.7,11.7,,71.9,294,353,-22,1018.29,76.7,0
"2021-08-05 14:27:39+00",10.2,11.2,,71.9,183,407,-20,1018.34,76,0
"2021-08-05 14:32:39+00",9.4,12.4,,72,190,334,-9,1018.38,75.7,0
"2021-08-05 14:37:39+00",7.1,11.1,,72.3,87,259,18,1018.33,75.7,0
"2021-08-05 14:42:39+00",9.1,11.1,,72.9,159,361,-12,1018.26,76.3,0
"2021-08-05 14:47:39+00",9.3,10.3,,73,245,321,13,1018.27,76.9,0
"2021-08-05 14:52:39+00",9.6,11.6,,72.6,285,309,0,1018.29,77.4,0
"2021-08-05 14:57:39+00",8.2,10.2,,73.1,247,267,16,1018.34,78.1,0
"2021-08-05 15:02:39+00",8.7,10.7,,72.9,366,129,25,1018.4,78.9,0
"2021-08-05 15:07:39+00",9.0,12.0,,73,401,125,41,1018.36,79.4,0
"2021-08-05 15:12:39+00",6.8,9.8,,72.6,272,89,60,1018.43,79.4,0
"2021-08-05 15:17:39+00",6.8,8.8,,73.3,125,251,-19,1018.53,78.9,0
"2021-08-05 15:22:39+00",6.6,7.6,,73.9,51,267,5,1018.44,78.4,0
"2021-08-05 15:27:39+00",5.0,7.0,,74.3,72,157,36,1018.31,78.4,0
"2021-08-05 15:32:39+00",6.8,8.8,,73.6,286,94,18,1018.51,78.2,0
"2021-08-05 15:37:39+00",5.8,6.8,,72.7,259,25,14,1018.52,77.3,0
"2021-08-05 15:42:39+00",8.4,8.4,,72.6,354,133,17,1018.56,76.6,0
"2021-08-05 15:47:39+00",8.0,9.0,,72.5,343,108,22,1018.5,76.7,0
"2021-08-05 15:52:39+00",8.8,9.8,,72.6,392,94,27,1018.36,77.4,0
"2021-08-05 15:57:39+00",8.6,9.6,,72.6,375,108,25,1018.24,77.4,0
"2021-08-05 16:02:39+00",10.0,13.0,,73.4,421,120,70,1018.32,77.9,0
"2021-08-05 16:07:39+00",10.7,12.7,,73.9,475,104,21,1018.25,79.2,0
"2021-08-05 16:12:39+00",10.7,12.7,,73.5,423,226,-10,1018.19,79.9,0
"2021-08-05 16:17:39+00",8.6,9.6,,73.6,373,100,5,1018.19,80.5,0
"2021-08-05 16:22:39+00",5.5,7.5,,73.6,226,60,1,1018.22,80.7,0
"2021-08-05 16:27:39+00",7.7,8.7,,74.1,330,82,46,1018.2,81.1,0
"2021-08-05 16:32:39+00",10.4,11.4,,73.8,466,-52,30,1018.16,79.7,0
"2021-08-05 16:37:39+00",9.8,10.8,,73.3,409,-142,26,1018.27,78,0
"2021-08-05 16:42:39+00",9.7,10.7,,73,437,-30,32,1018.26,76.5,0
"2021-08-05 16:47:39+00",10.5,12.5,,72.6,474,-3,2,1018.21,76.6,0
"2021-08-05 16:52:39+00",8.7,10.7,,72.8,392,14,24,1018.26,77.5,0
"2021-08-05 16:57:39+00",7.7,8.7,,72.7,336,-78,1,1018.25,77,0
"2021-08-05 17:02:39+00",8.9,10.9,,72.7,392,-35,48,1018.27,76.5,0
"2021-08-05 17:07:39+00",10.6,12.6,,72.2,446,-163,7,1018.4,75.6,0
"2021-08-05 17:12:39+00",9.7,11.7,,71.9,398,-171,20,1018.42,75.1,0
"2021-08-05 17:17:39+00",9.2,11.2,,71.7,375,-192,26,1018.46,74.9,0
"2021-08-05 17:22:39+00",9.3,11.3,,71.7,369,-173,12,1018.36,75.4,0
"2021-08-05 17:27:39+00",10.6,12.6,,71.8,440,-205,10,1018.41,76,0
"2021-08-05 17:32:39+00",10.2,12.2,,71.9,428,-178,12,1018.49,75.9,0
"2021-08-05 17:37:39+00",8.3,10.3,,71.7,303,-212,18,1018.37,74.8,0
"2021-08-05 17:42:39+00",8.3,10.3,,71.6,352,-121,42,1018.39,74.4,0
"2021-08-05 17:47:39+00",9.0,11.0,,71.5,364,-156,18,1018.47,74.5,0
"2021-08-05 17:52:39+00",9.5,10.5,,71.7,393,-152,-1,1018.46,74.8,0
"2021-08-05 17:57:39+00",8.1,10.1,,71.7,349,-94,34,1018.4,74.8,0
"2021-08-05 18:02:39+00",9.2,11.2,,71.9,356,-190,40,1018.35,75,0
"2021-08-05 18:07:39+00",8.5,10.5,,71.7,350,-175,27,1018.24,74.8,0
"2021-08-05 18:12:39+00",7.8,9.8,,71.7,356,-77,-9,1018.26,74.6,0
"2021-08-05 18:17:39+00",7.4,9.4,,71.5,291,-149,14,1018.22,74.5,0
"2021-08-05 18:22:39+00",6.3,8.3,,71.9,192,-190,59,1018.28,74.8,0
"2021-08-05 18:27:39+00",6.3,7.3,,72,221,-152,48,1018.31,74.8,0
"2021-08-05 18:32:39+00",7.8,8.8,,71.7,326,-131,-2,1018.36,74.9,0
"2021-08-05 18:37:39+00",6.5,7.5,,71.7,222,-161,-9,1018.34,75.1,0
"2021-08-05 18:42:39+00",7.4,9.4,,71.8,240,-210,-12,1018.29,74.9,0
"2021-08-05 18:47:39+00",8.1,9.1,,71.8,266,-229,-9,1018.31,74.4,0
"2021-08-05 18:52:39+00",8.2,9.2,,72,187,-304,-8,1018.3,74.2,0
"2021-08-05 18:57:39+00",7.1,9.1,,72.4,142,-242,48,1018.28,74.7,0
"2021-08-05 19:02:39+00",7.7,10.7,,72.1,97,-310,-3,1018.3,74.1,0
"2021-08-05 19:07:39+00",7.4,11.4,,72.2,47,-269,21,1018.3,73.7,0
"2021-08-05 19:12:39+00",9.0,10.0,,71.8,139,-347,-10,1018.28,73.5,0
"2021-08-05 19:17:39+00",9.7,10.7,,71.5,214,-358,-1,1018.38,73.1,0
"2021-08-05 19:22:39+00",6.7,9.7,,71.8,104,-256,16,1018.35,73.5,0
"2021-08-05 19:27:39+00",8.5,10.5,,71.8,39,-343,-2,1018.33,73.4,0
"2021-08-05 19:32:39+00",10.3,11.3,,71.9,155,-415,-23,1018.32,73.5,0
"2021-08-05 19:37:39+00",10.7,11.7,,71.8,139,-435,-18,1018.25,73.8,0
"2021-08-05 19:42:39+00",9.4,11.4,,72.2,97,-379,11,1018.22,74.3,0
"2021-08-05 19:47:39+00",9.9,11.9,,72.5,110,-403,1,1018.3,74.4,0
"2021-08-05 19:52:39+00",10.9,12.9,,73.3,102,-460,10,1018.24,75,0
"2021-08-05 19:57:39+00",9.7,12.7,,73.5,73,-398,11,1018.2,75.2,0
"2021-08-05 20:02:39+00",12.1,15.1,,72.5,162,-485,5,1018.19,74.7,0
"2021-08-05 20:07:39+00",12.6,15.6,,72.3,86,-531,-24,1018.32,73.9,0
"2021-08-05 20:12:39+00",11.6,14.6,,72.1,61,-478,-20,1018.22,73.5,0
"2021-08-05 20:17:39+00",13.2,16.2,,72.7,107,-563,-29,1018.17,74.2,0
"2021-08-05 20:22:39+00",10.9,14.9,,72.9,91,-439,15,1018.17,74.2,0
"2021-08-05 20:27:39+00",12.5,14.5,,72.5,89,-520,-28,1018.1,73.7,0
"2021-08-05 20:32:39+00",9.6,12.6,,72.6,2,-506,-20,1018.07,73.8,0
"2021-08-05 20:37:39+00",7.6,10.6,,73,24,-299,41,1018.03,74.2,0
"2021-08-05 20:42:39+00",9.4,11.4,,73.1,95,-366,39,1018.01,74.5,0
"2021-08-05 20:47:39+00",10.5,13.5,,73,-47,-440,-1,1018.03,74.6,0
"2021-08-05 20:52:39+00",11.5,15.5,,72.6,109,-512,-32,1017.94,74.2,0
"2021-08-05 20:57:39+00",10.8,15.8,,73.2,-25,-449,-12,1017.98,74.3,0
"2021-08-05 21:02:39+00",11.1,15.1,,73.4,59,-458,-13,1018.01,74.4,0
"2021-08-05 21:07:39+00",11.9,14.9,,73.1,14,-501,-3,1017.98,74.1,0
"2021-08-05 21:12:39+00",7.6,11.6,,73.7,4,-306,15,1018.02,74.7,0
"2021-08-05 21:17:39+00",8.5,11.5,,73.8,27,-345,6,1017.97,74.8,0
"2021-08-05 21:22:39+00",9.0,12.0,,73.9,-88,-380,24,1018.01,74.9,0
"2021-08-05 21:27:39+00",10.0,14.0,,73.5,-49,-450,-11,1017.99,74.8,0
"2021-08-05 21:32:39+00",9.6,12.6,,73.6,-65,-403,22,1018.1,74.6,0
"2021-08-05 21:37:39+00",12.0,15.0,,73.4,28,-535,-34,1018.03,74.5,0
"2021-08-05 21:42:39+00",8.7,10.7,,73.7,-25,-353,-12,1018.03,74.6,0
"2021-08-05 21:47:39+00",6.8,9.8,,73.8,-22,-278,19,1018.06,74.6,0
"2021-08-05 21:52:39+00",10.9,15.9,,73.8,-63,-464,-14,1018.07,74.6,0
"2021-08-05 21:57:39+00",9.8,11.8,,73.7,20,-392,6,1018.08,74.4,0
"2021-08-05 22:02:39+00",8.4,13.4,,73.3,46,-351,3,1018.16,74,0
"2021-08-05 22:07:39+00",10.8,13.8,,73.1,23,-450,4,1018.13,73.7,0
"2021-08-05 22:12:39+00",14.4,17.4,,72.6,129,-630,-15,1018.2,73.4,0
"2021-08-05 22:17:39+00",12.8,15.8,,72.6,80,-543,-9,1018.24,73.2,0
"2021-08-05 22:22:39+00",10.9,14.9,,72.6,61,-468,-9,1018.33,73,0
"2021-08-05 22:27:39+00",12.1,15.1,,72.7,43,-516,-34,1018.37,73.2,0
"2021-08-05 22:32:39+00",11.3,13.3,,72.8,74,-452,-16,1018.4,73.2,0
"2021-08-05 22:37:39+00",10.9,13.9,,72.7,19,-449,-21,1018.47,73.1,0
"2021-08-05 22:42:39+00",10.0,13.0,,72.9,92,-409,-1,1018.5,73.2,0
"2021-08-05 22:47:39+00",10.3,12.3,,72.8,95,-437,-6,1018.47,73.2,0
"2021-08-05 22:52:39+00",11.3,14.3,,72.7,74,-485,-10,1018.46,73,0
"2021-08-05 22:57:39+00",10.2,13.2,,72.6,61,-439,-10,1018.53,72.9,0
"2021-08-05 23:02:39+00",11.5,13.5,,72.5,132,-461,-1,1018.51,72.9,0
"2021-08-05 23:07:39+00",10.1,12.1,,72.4,82,-422,-10,1018.5,72.6,0
"2021-08-05 23:12:39+00",10.2,12.2,,72.3,89,-442,-3,1018.43,72.5,0
"2021-08-05 23:17:39+00",11.9,13.9,,72.2,109,-509,-22,1018.48,72.3,0
"2021-08-05 23:22:39+00",11.4,13.4,,72.1,70,-480,-23,1018.45,72.2,0
"2021-08-05 23:27:39+00",7.8,10.8,,72.1,-5,-322,-10,1018.52,72.1,0
"2021-08-05 23:32:39+00",9.9,11.9,,72.2,14,-392,1,1018.52,72.1,0
"2021-08-05 23:37:39+00",10.8,12.8,,72.2,-6,-467,-25,1018.56,72,0
"2021-08-05 23:42:39+00",10.9,14.9,,72.2,-36,-467,-23,1018.7,72,0
"2021-08-05 23:47:39+00",8.0,12.0,,72.1,-20,-320,6,1018.72,72,0
"2021-08-05 23:52:39+00",10.5,14.5,,72,16,-453,-22,1018.68,71.8,0
"2021-08-05 23:57:39+00",9.2,13.2,,71.8,0,-391,-21,1018.73,71.6,0
